FW7007 Weather Reports


time (UTC)temp
F
wind
direction
speed
knots
gust
knots
rain 1hr
in
rain 24hr
in
rain mn
in
humidity
%
barometer
mb
20260503230608 64 107 0.9 0.9 0.00 0.00 0.00 48 1017.7
20260503230104 64 93 0.0 0.9 0.00 0.00 0.00 47 1018.0
20260503225602 65 93 0.0 0.9 0.00 0.00 0.00 46 1017.9
20260503225056 65 97 0.0 0.0 0.00 0.00 0.00 45 1018.0
20260503224555 65 97 0.0 0.0 0.00 0.00 0.00 45 1017.9
20260503224052 66 101 0.0 0.9 0.00 0.00 0.00 43 1017.9
20260503223550 67 91 0.0 0.9 0.00 0.00 0.00 43 1018.0
20260503223045 67 90 0.0 0.9 0.00 0.00 0.00 41 1018.3
20260503222544 67 81 0.0 2.6 0.00 0.00 0.00 42 1018.1
20260503222041 67 87 0.0 1.7 0.00 0.00 0.00 42 1018.0
20260503221539 67 94 0.0 0.9 0.00 0.00 0.00 45 1018.1
20260503221036 67 110 0.9 1.7 0.00 0.00 0.00 42 1018.3
20260503220532 68 97 0.0 0.0 0.00 0.00 0.00 43 1018.3
20260503220029 68 96 0.9 0.9 0.00 0.00 0.00 45 1018.2
20260503215526 67 106 0.0 0.9 0.00 0.00 0.00 43 1018.4
20260503215023 67 97 0.9 0.9 0.00 0.00 0.00 41 1018.6
20260503214522 67 104 0.9 2.6 0.00 0.00 0.00 42 1018.6
20260503214018 67 88 0.9 0.9 0.00 0.00 0.00 41 1018.7
20260503213516 68 81 1.7 1.7 0.00 0.00 0.00 41 1018.5
20260503213013 67 108 0.9 0.9 0.00 0.00 0.00 40 1018.7
20260503212510 67 79 0.9 1.7 0.00 0.00 0.00 40 1018.9
20260503212008 67 55 1.7 2.6 0.00 0.00 0.00 40 1018.8
20260503211504 67 95 0.0 0.9 0.00 0.00 0.00 39 1018.7
20260503210954 66 64 1.7 2.6 0.00 0.00 0.00 40 1018.9
20260503210452 67 72 1.7 1.7 0.00 0.00 0.00 39 1018.9
20260503205951 67 84 0.0 1.7 0.00 0.00 0.00 41 1019.0
20260503205449 66 81 0.9 1.7 0.00 0.00 0.00 39 1019.3
20260503204945 67 107 0.9 1.7 0.00 0.00 0.00 42 1019.0
20260503204442 66 108 0.0 1.7 0.00 0.00 0.00 43 1019.1
20260503203933 66 78 1.7 1.7 0.00 0.00 0.00 40 1019.4
20260503203431 67 84 0.9 0.9 0.00 0.00 0.00 42 1019.1
20260503202928 66 79 0.9 5.2 0.00 0.00 0.00 41 1019.3
20260503202426 66 102 0.0 0.0 0.00 0.00 0.00 40 1019.3
20260503201924 66 83 0.0 2.6 0.00 0.00 0.00 38 1019.5
20260503201421 65 91 0.9 0.9 0.00 0.00 0.00 42 1019.5
20260503200918 67 68 2.6 5.2 0.00 0.00 0.00 41 1020.0
20260503200414 66 115 0.9 1.7 0.00 0.00 0.00 39 1019.9
20260503195911 67 82 0.0 0.9 0.00 0.00 0.00 42 1020.2
20260503195409 65 68 1.7 2.6 0.00 0.00 0.00 42 1020.0
20260503194905 65 57 1.7 1.7 0.00 0.00 0.00 42 1020.1
20260503194401 66 88 0.9 0.9 0.00 0.00 0.00 42 1020.1
20260503193857 66 24 0.9 1.7 0.00 0.00 0.00 39 1020.3
20260503193353 66 102 0.9 1.7 0.00 0.00 0.00 42 1020.4
20260503192849 65 95 0.0 1.7 0.00 0.00 0.00 45 1020.3
20260503192345 65 73 0.9 2.6 0.00 0.00 0.00 43 1020.6
20260503191841 66 79 0.9 1.7 0.00 0.00 0.00 43 1020.4
20260503191338 64 105 0.9 0.9 0.00 0.00 0.00 41 1020.6
20260503190835 65 67 1.7 2.6 0.00 0.00 0.00 43 1020.7
20260503190332 64 74 0.9 1.7 0.00 0.00 0.00 42 1020.6
20260503185829 65 112 0.9 1.7 0.00 0.00 0.00 43 1020.7
20260503185325 64 107 0.0 0.9 0.00 0.00 0.00 46 1020.9
20260503184820 63 98 0.0 0.9 0.00 0.00 0.00 46 1020.8
20260503184316 64 122 0.9 1.7 0.00 0.00 0.00 46 1020.9
20260503183812 64 102 0.9 1.7 0.00 0.00 0.00 43 1020.8
20260503183309 64 79 0.9 1.7 0.00 0.00 0.00 41 1021.1
20260503182807 64 103 0.9 4.3 0.00 0.00 0.00 44 1021.0
20260503182306 64 86 0.9 4.3 0.00 0.00 0.00 44 1021.2
20260503181803 63 112 0.9 1.7 0.00 0.00 0.00 45 1021.3
20260503181259 63 102 0.9 0.9 0.00 0.00 0.00 49 1021.0
20260503180755 63 117 0.9 1.7 0.00 0.00 0.00 44 1021.3
20260503180254 62 62 0.9 2.6 0.00 0.00 0.00 47 1021.5
20260503175750 62 115 0.9 1.7 0.00 0.00 0.00 50 1021.5
20260503175248 61 87 0.9 0.9 0.00 0.00 0.00 49 1021.5
20260503174744 62 66 0.9 1.7 0.00 0.00 0.00 47 1021.7
20260503174242 61 126 0.0 0.9 0.00 0.00 0.00 49 1021.8
20260503173742 62 158 1.7 1.7 0.00 0.00 0.00 45 1021.9
20260503173238 62 73 0.9 1.7 0.00 0.00 0.00 43 1022.0
20260503172735 61 95 0.0 0.9 0.00 0.00 0.00 45 1022.1
20260503172232 61 87 0.9 1.7 0.00 0.00 0.00 45 1022.1
20260503171729 61 71 0.9 1.7 0.00 0.00 0.00 45 1022.1
20260503171226 61 112 0.0 0.9 0.00 0.00 0.00 46 1022.0
20260503170723 61 118 0.9 1.7 0.00 0.00 0.00 46 1022.2
20260503170220 60 95 0.0 1.7 0.00 0.00 0.00 48 1022.2
20260503160141 57 67 1.7 1.7 0.00 0.00 0.00 47 1023.0
20260503150612 55 106 0.9 1.7 0.00 0.00 0.00 51 1023.2
20260503150108 55 134 0.9 1.7 0.00 0.00 0.00 49 1023.3
20260503131001 50 94 0.0 0.9 0.00 0.00 0.00 76 1023.3
20260503130459 49 103 0.0 1.7 0.00 0.00 0.00 76 1023.3
20260503110344 41 95 0.0 0.0 0.00 0.00 0.00 99 1021.9
20260503090224 43 95 0.0 0.0 0.00 0.00 0.00 96 1021.0
20260503081156 44 95 0.0 0.0 0.00 0.00 0.00 92 1020.6
20260503080652 44 95 0.0 0.0 0.00 0.00 0.00 92 1020.5
20260503080149 44 94 0.0 0.0 0.00 0.00 0.00 92 1020.5
20260503072626 44 101 0.0 0.0 0.00 0.00 0.00 91 1020.3
20260503072123 44 101 0.0 0.0 0.00 0.00 0.00 90 1019.9
20260503071620 44 101 0.0 0.0 0.00 0.00 0.00 89 1019.8
20260503071116 45 101 0.0 0.0 0.00 0.00 0.00 89 1019.9
20260503070614 45 101 0.0 0.0 0.00 0.00 0.00 89 1019.9
20260503070112 45 100 0.0 0.0 0.00 0.00 0.00 88 1020.0
20260503055032 47 96 0.0 0.0 0.00 0.00 0.00 83 1020.0
20260503054528 47 97 0.0 0.0 0.00 0.00 0.00 82 1019.8
20260503054025 47 104 0.0 0.0 0.00 0.00 0.00 82 1019.5
20260503053523 47 104 0.0 0.0 0.00 0.00 0.00 81 1019.6
20260503053021 48 106 0.0 0.0 0.00 0.00 0.00 82 1019.8
20260503052518 48 106 0.0 0.0 0.00 0.00 0.00 80 1019.5
20260503052014 48 106 0.0 0.0 0.00 0.00 0.00 80 1019.5
20260503051509 48 106 0.0 0.0 0.00 0.00 0.00 80 1019.6
20260503051007 49 106 0.0 0.0 0.00 0.00 0.00 80 1019.6
20260503050503 49 106 0.0 0.0 0.00 0.00 0.00 80 1019.6
20260503050000 48 106 0.0 0.0 0.00 0.00 0.00 79 1019.5
20260503045457 48 106 0.0 0.0 0.00 0.00 0.00 78 1019.4
20260503044954 48 107 0.0 0.0 0.00 0.00 0.00 79 1019.5
20260503044451 48 107 0.0 0.0 0.00 0.00 0.00 80 1019.6
20260503043949 48 107 0.0 0.0 0.00 0.00 0.00 79 1019.4
20260503043444 49 107 0.0 0.0 0.00 0.00 0.00 78 1019.5
20260503042941 49 107 0.0 0.0 0.00 0.00 0.00 76 1019.7
20260503042437 49 107 0.0 0.0 0.00 0.00 0.00 74 1019.5
20260503041935 50 107 0.0 0.0 0.00 0.00 0.00 73 1019.4
20260503041431 50 107 0.0 0.0 0.00 0.00 0.00 71 1019.5
20260503040929 51 107 0.0 0.0 0.00 0.00 0.00 71 1019.3
20260503040426 51 108 0.0 0.0 0.00 0.00 0.00 70 1019.1
20260503035923 51 108 0.0 0.0 0.00 0.00 0.00 71 1019.3
20260503035420 51 108 0.0 0.0 0.00 0.00 0.00 69 1019.4
20260503034917 51 108 0.0 0.0 0.00 0.00 0.00 68 1019.1
20260503034415 52 107 0.0 0.0 0.00 0.00 0.00 69 1018.9
20260503033912 52 107 0.0 0.0 0.00 0.00 0.00 68 1019.3
20260503033409 52 106 0.0 0.0 0.00 0.00 0.00 68 1019.1
20260503032907 52 107 0.0 0.0 0.00 0.00 0.00 66 1018.8
20260503032406 52 97 0.0 0.0 0.00 0.00 0.00 67 1019.0
20260503031903 53 96 0.0 0.0 0.00 0.00 0.00 66 1019.1
20260503031401 53 107 0.0 0.0 0.00 0.00 0.00 65 1019.1
20260503030857 53 109 0.9 0.9 0.00 0.00 0.00 65 1019.1
20260503030353 53 108 0.0 0.9 0.00 0.00 0.00 63 1019.1
20260503025850 53 86 0.9 1.7 0.00 0.00 0.00 62 1019.0
20260503025347 53 248 1.7 1.7 0.00 0.00 0.00 62 1019.3
20260503024844 53 103 0.9 2.6 0.00 0.00 0.00 62 1019.1
20260503024341 53 122 0.9 1.7 0.00 0.00 0.00 65 1018.9
20260503023837 53 106 0.9 1.7 0.00 0.00 0.00 64 1018.8
20260503023335 53 208 2.6 2.6 0.00 0.00 0.00 64 1018.7
20260503022831 53 130 0.9 1.7 0.00 0.00 0.00 65 1018.6
20260503022326 53 108 0.0 0.0 0.00 0.00 0.00 64 1018.7
20260503021823 54 108 0.0 0.0 0.00 0.00 0.00 66 1018.5
20260503021319 54 108 0.0 0.0 0.00 0.00 0.00 67 1018.6
20260503020817 54 107 0.0 0.0 0.00 0.00 0.00 66 1018.6
20260503020315 53 106 0.0 0.0 0.00 0.00 0.00 66 1018.5
20260503015810 53 105 0.0 0.0 0.00 0.00 0.00 67 1018.4
20260503015307 53 105 0.0 0.0 0.00 0.00 0.00 66 1018.4
20260503014803 53 105 0.0 0.0 0.00 0.00 0.00 66 1018.2
20260503014301 53 106 0.0 0.0 0.00 0.00 0.00 66 1018.2
20260503013758 53 106 0.0 0.0 0.00 0.00 0.00 66 1018.1
20260503013256 53 103 0.0 0.0 0.00 0.00 0.00 65 1017.7
20260503012753 53 103 0.0 0.0 0.00 0.00 0.00 65 1018.0
20260503012250 53 103 0.0 0.0 0.00 0.00 0.00 65 1017.7
20260503011747 53 98 0.0 0.0 0.00 0.00 0.00 67 1017.6
20260503011244 53 102 0.0 0.0 0.00 0.00 0.00 65 1017.5
20260503010740 53 102 0.0 0.0 0.00 0.00 0.00 66 1017.5
20260503010237 53 102 0.0 0.0 0.00 0.00 0.00 65 1017.5
20260503005734 53 102 0.0 0.0 0.00 0.00 0.00 65 1017.2
20260503005231 53 102 0.0 0.0 0.00 0.00 0.00 66 1017.5
20260503004727 53 102 0.0 0.0 0.00 0.00 0.00 65 1017.5
20260503004226 53 102 0.0 0.0 0.00 0.00 0.00 66 1017.2
20260503003723 53 102 0.0 0.0 0.00 0.00 0.00 67 1017.2
20260503003220 53 102 0.0 0.0 0.00 0.00 0.00 65 1017.1
20260503002716 54 102 0.0 0.0 0.00 0.00 0.00 66 1017.0
20260503002213 54 102 0.0 0.0 0.00 0.00 0.00 65 1017.2
20260503001709 55 102 0.0 0.0 0.00 0.00 0.00 63 1016.7
20260503001206 55 102 0.0 0.0 0.00 0.00 0.00 62 1016.7
20260503000704 56 103 0.0 0.0 0.00 0.00 0.00 60 1016.6
20260503000203 57 103 0.0 0.0 0.00 0.00 0.00 56 1016.4
20260502235658 57 103 0.0 0.0 0.00 0.00 0.00 55 1016.7
20260502235156 57 107 0.0 0.0 0.00 0.00 0.00 54 1016.7
20260502234651 57 108 0.0 1.7 0.00 0.00 0.00 51 1016.5
20260502234149 58 98 0.0 0.9 0.00 0.00 0.00 51 1016.5
20260502233645 58 114 0.0 0.0 0.00 0.00 0.00 51 1016.5
20260502233142 58 106 0.0 0.9 0.00 0.00 0.00 50 1016.4
20260502232637 58 111 0.9 0.9 0.00 0.00 0.00 51 1016.5
20260502232135 59 122 1.7 2.6 0.00 0.00 0.00 49 1016.3
20260502231626 59 106 0.0 1.7 0.00 0.00 0.00 49 1016.3
20260502231124 59 107 0.0 1.7 0.00 0.00 0.00 49 1016.4